Year,Month,Day,Hour,Minute,Value (Times are PST for temperature in C)
2008,07,22,00,00,15.20
2008,07,22,00,01,15.20
2008,07,22,00,02,15.20
2008,07,22,00,03,15.20
2008,07,22,00,04,15.20
2008,07,22,00,05,15.20
2008,07,22,00,06,15.20
2008,07,22,00,07,15.20
2008,07,22,00,08,15.20
2008,07,22,00,09,15.20
2008,07,22,00,10,15.10
2008,07,22,00,11,15.20
2008,07,22,00,13,15.10
2008,07,22,00,14,15.10
2008,07,22,00,15,15.10
2008,07,22,00,16,15.10
2008,07,22,00,17,15.00
2008,07,22,00,18,15.00
2008,07,22,00,19,15.00
2008,07,22,00,20,15.00
2008,07,22,00,21,15.00
2008,07,22,00,22,15.00
2008,07,22,00,23,15.00
2008,07,22,00,24,15.00
2008,07,22,00,25,15.00
2008,07,22,00,26,15.00
2008,07,22,00,27,15.00
2008,07,22,00,28,15.00
2008,07,22,00,29,15.00
2008,07,22,00,30,15.00
2008,07,22,00,32,15.00
2008,07,22,00,33,15.00
2008,07,22,00,34,15.00
2008,07,22,00,35,15.00
2008,07,22,00,36,15.00
2008,07,22,00,37,14.90
2008,07,22,00,38,14.90
2008,07,22,00,39,14.90
2008,07,22,00,40,14.90
2008,07,22,00,41,14.90
2008,07,22,00,42,14.90
2008,07,22,00,43,14.90
2008,07,22,00,44,14.80
2008,07,22,00,45,14.80
2008,07,22,00,46,14.80
2008,07,22,00,48,14.80
2008,07,22,00,49,14.80
2008,07,22,00,50,14.80
2008,07,22,00,51,14.80
2008,07,22,00,52,14.80
2008,07,22,00,53,14.80
2008,07,22,00,54,14.80
2008,07,22,00,55,14.80
2008,07,22,00,56,14.70
2008,07,22,00,57,14.70
2008,07,22,00,58,14.70
2008,07,22,00,59,14.70
2008,07,22,01,00,14.70
2008,07,22,01,01,14.70
2008,07,22,01,02,14.70
2008,07,22,01,03,14.70
2008,07,22,01,04,14.70
2008,07,22,01,05,14.70
2008,07,22,01,06,14.70
2008,07,22,01,07,14.70
2008,07,22,01,08,14.70
2008,07,22,01,09,14.70
2008,07,22,01,10,14.70
2008,07,22,01,11,14.70
2008,07,22,01,12,14.60
2008,07,22,01,13,14.60
2008,07,22,01,14,14.60
2008,07,22,01,15,14.60
2008,07,22,01,16,14.60
2008,07,22,01,17,14.60
2008,07,22,01,18,14.60
2008,07,22,01,19,14.60
2008,07,22,01,20,14.60
2008,07,22,01,21,14.60
2008,07,22,01,22,14.60
2008,07,22,01,24,14.60
2008,07,22,01,25,14.60
2008,07,22,01,26,14.60
2008,07,22,01,27,14.60
2008,07,22,01,28,14.60
2008,07,22,01,29,14.60
2008,07,22,01,30,14.60
2008,07,22,01,31,14.60
2008,07,22,01,32,14.60
2008,07,22,01,33,14.60
2008,07,22,01,34,14.60
2008,07,22,01,35,14.60
2008,07,22,01,36,14.60
2008,07,22,01,37,14.60
2008,07,22,01,38,14.60
2008,07,22,01,39,14.60
2008,07,22,01,40,14.50
2008,07,22,01,41,14.60
2008,07,22,01,42,14.50
2008,07,22,01,43,14.50
2008,07,22,01,44,14.50
2008,07,22,01,45,14.50
2008,07,22,01,46,14.50
2008,07,22,01,47,14.50
2008,07,22,01,48,14.50
2008,07,22,01,49,14.40
2008,07,22,01,50,14.40
2008,07,22,01,51,14.40
2008,07,22,01,52,14.40
2008,07,22,01,53,14.40
2008,07,22,01,54,14.40
2008,07,22,01,55,14.40
2008,07,22,01,56,14.40
2008,07,22,01,57,14.40
2008,07,22,01,58,14.40
2008,07,22,01,59,14.40
2008,07,22,02,00,14.30
2008,07,22,02,01,14.30
2008,07,22,02,02,14.30
2008,07,22,02,03,14.30
2008,07,22,02,04,14.30
2008,07,22,02,05,14.30
2008,07,22,02,06,14.30
2008,07,22,02,07,14.30
2008,07,22,02,08,14.20
2008,07,22,02,09,14.20
2008,07,22,02,10,14.20
2008,07,22,02,11,14.20
2008,07,22,02,12,14.20
2008,07,22,02,13,14.20
2008,07,22,02,14,14.20
2008,07,22,02,15,14.20
2008,07,22,02,16,14.20
2008,07,22,02,17,14.20
2008,07,22,02,18,14.20
2008,07,22,02,19,14.20
2008,07,22,02,20,14.20
2008,07,22,02,21,14.20
2008,07,22,02,22,14.20
2008,07,22,02,23,14.20
2008,07,22,02,24,14.20
2008,07,22,02,25,14.20
2008,07,22,02,26,14.20
2008,07,22,02,27,14.20
2008,07,22,02,28,14.20
2008,07,22,02,29,14.20
2008,07,22,02,30,14.10
2008,07,22,02,31,14.10
2008,07,22,02,32,14.10
2008,07,22,02,33,14.10
2008,07,22,02,34,14.10
2008,07,22,02,35,14.10
2008,07,22,02,36,14.10
2008,07,22,02,37,14.10
2008,07,22,02,38,14.10
2008,07,22,02,39,14.10
2008,07,22,02,40,14.10
2008,07,22,02,41,14.10
2008,07,22,02,42,14.10
2008,07,22,02,43,14.10
2008,07,22,02,44,14.10
2008,07,22,02,45,14.10
2008,07,22,02,46,14.10
2008,07,22,02,47,14.10
2008,07,22,02,49,14.10
2008,07,22,02,50,14.10
2008,07,22,02,51,14.10
2008,07,22,02,52,14.10
2008,07,22,02,53,14.10
2008,07,22,02,54,14.10
2008,07,22,02,55,14.10
2008,07,22,02,56,14.10
2008,07,22,02,57,14.10
2008,07,22,02,58,14.10
2008,07,22,02,59,14.10
2008,07,22,03,00,14.10
2008,07,22,03,01,14.10
2008,07,22,03,02,14.10
2008,07,22,03,03,14.10
2008,07,22,03,04,14.10
2008,07,22,03,05,14.10
2008,07,22,03,06,14.00
2008,07,22,03,07,14.00
2008,07,22,03,08,14.00
2008,07,22,03,09,14.00
2008,07,22,03,10,14.00
2008,07,22,03,11,14.00
2008,07,22,03,12,14.00
2008,07,22,03,13,14.00
2008,07,22,03,14,13.90
2008,07,22,03,15,13.90
2008,07,22,03,16,13.90
2008,07,22,03,17,13.90
2008,07,22,03,18,13.90
2008,07,22,03,19,13.90
2008,07,22,03,20,13.90
2008,07,22,03,21,13.90
2008,07,22,03,22,13.90
2008,07,22,03,23,13.90
2008,07,22,03,24,13.90
2008,07,22,03,25,13.90
2008,07,22,03,26,13.90
2008,07,22,03,27,13.90
2008,07,22,03,28,13.80
2008,07,22,03,29,13.80
2008,07,22,03,30,13.80
2008,07,22,03,31,13.80
2008,07,22,03,32,13.80
2008,07,22,03,33,13.80
2008,07,22,03,34,13.80
2008,07,22,03,35,13.80
2008,07,22,03,36,13.80
2008,07,22,03,37,13.80
2008,07,22,03,38,13.80
2008,07,22,03,39,13.80
2008,07,22,03,40,13.80
2008,07,22,03,41,13.80
2008,07,22,03,42,13.80
2008,07,22,03,43,13.80
2008,07,22,03,44,13.80
2008,07,22,03,45,13.80
2008,07,22,03,46,13.80
2008,07,22,03,47,13.80
2008,07,22,03,48,13.70
2008,07,22,03,49,13.70
2008,07,22,03,50,13.70
2008,07,22,03,51,13.70
2008,07,22,03,52,13.70
2008,07,22,03,53,13.70
2008,07,22,03,54,13.70
2008,07,22,03,55,13.70
2008,07,22,03,56,13.70
2008,07,22,03,57,13.70
2008,07,22,03,58,13.70
2008,07,22,03,59,13.70
2008,07,22,04,00,13.70
2008,07,22,04,01,13.70
2008,07,22,04,02,13.70
2008,07,22,04,03,13.70
2008,07,22,04,04,13.70
2008,07,22,04,05,13.70
2008,07,22,04,06,13.70
2008,07,22,04,07,13.70
2008,07,22,04,08,13.70
2008,07,22,04,09,13.70
2008,07,22,04,10,13.70
2008,07,22,04,11,13.70
2008,07,22,04,12,13.70
2008,07,22,04,13,13.70
2008,07,22,04,14,13.70
2008,07,22,04,15,13.70
2008,07,22,04,16,13.70
2008,07,22,04,17,13.70
2008,07,22,04,18,13.70
2008,07,22,04,19,13.70
2008,07,22,04,20,13.70
2008,07,22,04,21,13.70
2008,07,22,04,22,13.70
2008,07,22,04,23,13.70
2008,07,22,04,24,13.70
2008,07,22,04,25,13.70
2008,07,22,04,26,13.70
2008,07,22,04,27,13.70
2008,07,22,04,28,13.70
2008,07,22,04,29,13.70
2008,07,22,04,30,13.70
2008,07,22,04,31,13.70
2008,07,22,04,32,13.70
2008,07,22,04,33,13.70
2008,07,22,04,34,13.70
2008,07,22,04,35,13.70
2008,07,22,04,36,13.70
2008,07,22,04,37,13.70
2008,07,22,04,38,13.70
2008,07,22,04,39,13.70
2008,07,22,04,40,13.70
2008,07,22,04,41,13.70
2008,07,22,04,42,13.70
2008,07,22,04,43,13.70
2008,07,22,04,44,13.70
2008,07,22,04,45,13.70
2008,07,22,04,46,13.70
2008,07,22,04,47,13.60
2008,07,22,04,48,13.60
2008,07,22,04,50,13.60
2008,07,22,04,51,13.60
2008,07,22,04,52,13.60
2008,07,22,04,53,13.60
2008,07,22,04,54,13.60
2008,07,22,04,55,13.60
2008,07,22,04,56,13.60
2008,07,22,04,57,13.60
2008,07,22,04,58,13.60
2008,07,22,04,59,13.60
2008,07,22,05,00,13.60
2008,07,22,05,01,13.60
2008,07,22,05,02,13.60
2008,07,22,05,03,13.60
2008,07,22,05,04,13.60
2008,07,22,05,05,13.60
2008,07,22,05,06,13.60
2008,07,22,05,07,13.60
2008,07,22,05,08,13.60
2008,07,22,05,09,13.60
2008,07,22,05,10,13.60
2008,07,22,05,11,13.60
2008,07,22,05,12,13.50
2008,07,22,05,13,13.50
2008,07,22,05,14,13.50
2008,07,22,05,15,13.50
2008,07,22,05,16,13.50
2008,07,22,05,17,13.50
2008,07,22,05,18,13.50
2008,07,22,05,19,13.50
2008,07,22,05,20,13.50
2008,07,22,05,21,13.50
2008,07,22,05,22,13.50
2008,07,22,05,23,13.50
2008,07,22,05,24,13.50
2008,07,22,05,25,13.50
2008,07,22,05,26,13.50
2008,07,22,05,27,13.50
2008,07,22,05,28,13.50
2008,07,22,05,29,13.40
2008,07,22,05,30,13.40
2008,07,22,05,31,13.40
2008,07,22,05,32,13.40
2008,07,22,05,33,13.40
2008,07,22,05,34,13.40
2008,07,22,05,35,13.40
2008,07,22,05,36,13.40
2008,07,22,05,37,13.40
2008,07,22,05,38,13.40
2008,07,22,05,39,13.40
2008,07,22,05,40,13.40
2008,07,22,05,41,13.40
2008,07,22,05,42,13.40
2008,07,22,05,43,13.40
2008,07,22,05,44,13.40
2008,07,22,05,45,13.40
2008,07,22,05,46,13.40
2008,07,22,05,47,13.40
2008,07,22,05,48,13.40
2008,07,22,05,49,13.40
2008,07,22,05,50,13.40
2008,07,22,05,51,13.40
2008,07,22,05,52,13.40
2008,07,22,05,53,13.40
2008,07,22,05,54,13.40
2008,07,22,05,55,13.40
2008,07,22,05,56,13.40
2008,07,22,05,57,13.40
2008,07,22,05,58,13.40
2008,07,22,05,59,13.40
2008,07,22,06,00,13.40
2008,07,22,06,01,13.40
2008,07,22,06,02,13.40
2008,07,22,06,03,13.40
2008,07,22,06,04,13.40
2008,07,22,06,05,13.40
2008,07,22,06,06,13.40
2008,07,22,06,07,13.40
2008,07,22,06,08,13.40
2008,07,22,06,09,13.40
2008,07,22,06,10,13.40
2008,07,22,06,11,13.40
2008,07,22,06,12,13.40
2008,07,22,06,13,13.40
2008,07,22,06,14,13.40
2008,07,22,06,15,13.40
2008,07,22,06,16,13.40
2008,07,22,06,17,13.40
2008,07,22,06,18,13.40
2008,07,22,06,19,13.40
2008,07,22,06,20,13.40
2008,07,22,06,21,13.40
2008,07,22,06,22,13.40
2008,07,22,06,23,13.40
2008,07,22,06,24,13.40
2008,07,22,06,25,13.50
2008,07,22,06,26,13.50
2008,07,22,06,27,13.50
2008,07,22,06,28,13.50
2008,07,22,06,29,13.50
2008,07,22,06,30,13.50
2008,07,22,06,31,13.50
2008,07,22,06,32,13.60
2008,07,22,06,33,13.60
2008,07,22,06,34,13.60
2008,07,22,06,35,13.60
2008,07,22,06,36,13.60
2008,07,22,06,37,13.60
2008,07,22,06,38,13.60
2008,07,22,06,39,13.60
2008,07,22,06,40,13.60
2008,07,22,06,41,13.70
2008,07,22,06,42,13.70
2008,07,22,06,43,13.70
2008,07,22,06,44,13.70
2008,07,22,06,45,13.70
2008,07,22,06,46,13.70
2008,07,22,06,47,13.70
2008,07,22,06,48,13.70
2008,07,22,06,49,13.70
2008,07,22,06,51,13.80
2008,07,22,06,52,13.70
2008,07,22,06,53,13.80
2008,07,22,06,54,13.80
2008,07,22,06,55,13.80
2008,07,22,06,56,13.80
2008,07,22,06,57,13.80
2008,07,22,06,58,13.80
2008,07,22,06,59,13.80
2008,07,22,07,00,13.80
2008,07,22,07,01,13.80
2008,07,22,07,02,13.80
2008,07,22,07,03,13.80
2008,07,22,07,04,13.80
2008,07,22,07,05,13.90
2008,07,22,07,06,13.90
2008,07,22,07,07,13.90
2008,07,22,07,08,13.90
2008,07,22,07,09,13.90
2008,07,22,07,10,13.90
2008,07,22,07,11,13.90
2008,07,22,07,12,13.90
2008,07,22,07,13,13.90
2008,07,22,07,14,14.00
2008,07,22,07,15,14.00
2008,07,22,07,16,14.00
2008,07,22,07,17,14.00
2008,07,22,07,18,14.00
2008,07,22,07,19,14.00
2008,07,22,07,20,14.10
2008,07,22,07,21,14.10
2008,07,22,07,22,14.10
2008,07,22,07,23,14.10
2008,07,22,07,24,14.10
2008,07,22,07,25,14.10
2008,07,22,07,26,14.10
2008,07,22,07,27,14.10
2008,07,22,07,28,14.10
2008,07,22,07,29,14.20
2008,07,22,07,30,14.20
2008,07,22,07,31,14.20
2008,07,22,07,32,14.20
2008,07,22,07,33,14.20
2008,07,22,07,34,14.20
2008,07,22,07,35,14.20
2008,07,22,07,36,14.20
2008,07,22,07,37,14.20
2008,07,22,07,38,14.20
2008,07,22,07,39,14.30
2008,07,22,07,40,14.30
2008,07,22,07,41,14.30
2008,07,22,07,42,14.30
2008,07,22,07,43,14.30
2008,07,22,07,44,14.30
2008,07,22,07,45,14.30
2008,07,22,07,46,14.30
2008,07,22,07,47,14.40
2008,07,22,07,48,14.40
2008,07,22,07,49,14.40
2008,07,22,07,50,14.40
2008,07,22,07,51,14.40
2008,07,22,07,52,14.40
2008,07,22,07,53,14.50
2008,07,22,07,54,14.50
2008,07,22,07,55,14.60
2008,07,22,07,56,14.60
2008,07,22,07,57,14.60
2008,07,22,07,58,14.60
2008,07,22,07,59,14.70
2008,07,22,08,00,14.70
2008,07,22,08,01,14.70
2008,07,22,08,02,14.70
2008,07,22,08,03,14.70
2008,07,22,08,04,14.70
2008,07,22,08,05,14.80
2008,07,22,08,06,14.80
2008,07,22,08,07,14.80
2008,07,22,08,08,14.80
2008,07,22,08,09,14.80
2008,07,22,08,10,14.90
2008,07,22,08,11,14.90
2008,07,22,08,12,15.00
2008,07,22,08,13,15.00
2008,07,22,08,14,15.00
2008,07,22,08,15,15.00
2008,07,22,08,16,15.00
2008,07,22,08,17,15.00
2008,07,22,08,18,15.00
2008,07,22,08,19,15.00
2008,07,22,08,20,15.00
2008,07,22,08,21,15.00
2008,07,22,08,22,15.00
2008,07,22,08,23,15.10
2008,07,22,08,24,15.10
2008,07,22,08,25,15.10
2008,07,22,08,26,15.10
2008,07,22,08,27,15.20
2008,07,22,08,28,15.20
2008,07,22,08,29,15.20
2008,07,22,08,30,15.20
2008,07,22,08,31,15.20
2008,07,22,08,32,15.20
2008,07,22,08,33,15.20
2008,07,22,08,34,15.20
2008,07,22,08,35,15.30
2008,07,22,08,36,15.30
2008,07,22,08,37,15.30
2008,07,22,08,38,15.30
2008,07,22,08,39,15.30
2008,07,22,08,40,15.30
2008,07,22,08,41,15.30
2008,07,22,08,42,15.40
2008,07,22,08,43,15.40
2008,07,22,08,44,15.40
2008,07,22,08,45,15.50
2008,07,22,08,46,15.50
2008,07,22,08,47,15.60
2008,07,22,08,48,15.60
2008,07,22,08,49,15.60
2008,07,22,08,50,15.70
2008,07,22,08,51,15.70
2008,07,22,08,52,15.70
2008,07,22,08,53,15.80
2008,07,22,08,54,15.80
2008,07,22,08,55,15.90
2008,07,22,08,56,15.90
2008,07,22,08,57,16.00
2008,07,22,08,58,16.10
2008,07,22,08,59,16.10
2008,07,22,09,00,16.20
2008,07,22,09,01,16.30
2008,07,22,09,02,16.30
2008,07,22,09,03,16.40
2008,07,22,09,04,16.40
2008,07,22,09,05,16.60
2008,07,22,09,06,16.60
2008,07,22,09,07,16.70
2008,07,22,09,08,16.70
2008,07,22,09,09,16.80
2008,07,22,09,10,16.80
2008,07,22,09,11,16.90
2008,07,22,09,12,16.90
2008,07,22,09,13,17.00
2008,07,22,09,14,17.00
2008,07,22,09,15,17.10
2008,07,22,09,16,17.10
2008,07,22,09,17,17.10
2008,07,22,09,18,17.20
2008,07,22,09,19,17.20
2008,07,22,09,20,17.20
2008,07,22,09,21,17.20
2008,07,22,09,22,17.20
2008,07,22,09,23,17.30
2008,07,22,09,24,17.30
2008,07,22,09,25,17.30
2008,07,22,09,26,17.30
2008,07,22,09,27,17.30
2008,07,22,09,28,17.30
2008,07,22,09,29,17.30
2008,07,22,09,30,17.30
2008,07,22,09,31,17.30
2008,07,22,09,32,17.30
2008,07,22,09,33,17.30
2008,07,22,09,34,17.30
2008,07,22,09,35,17.40
2008,07,22,09,36,17.40
2008,07,22,09,37,17.40
2008,07,22,09,38,17.40
2008,07,22,09,39,17.40
2008,07,22,09,40,17.50
2008,07,22,09,41,17.50
2008,07,22,09,42,17.60
2008,07,22,09,43,17.60
2008,07,22,09,44,17.60
2008,07,22,09,45,17.70
2008,07,22,09,46,17.70
2008,07,22,09,47,17.70
2008,07,22,09,48,17.70
2008,07,22,09,49,17.80
2008,07,22,09,50,17.80
2008,07,22,09,51,17.80
2008,07,22,09,52,17.90
2008,07,22,09,53,17.90
2008,07,22,09,54,18.00
2008,07,22,09,55,18.10
2008,07,22,09,56,18.10
2008,07,22,09,57,18.10
2008,07,22,09,58,18.20
2008,07,22,09,59,18.20
2008,07,22,10,00,18.20
2008,07,22,10,01,18.20
2008,07,22,10,02,18.30
2008,07,22,10,03,18.30
2008,07,22,10,04,18.30
2008,07,22,10,05,18.30
2008,07,22,10,06,18.30
2008,07,22,10,07,18.30
2008,07,22,10,08,18.30
2008,07,22,10,09,18.30
2008,07,22,10,10,18.30
2008,07,22,10,11,18.30
2008,07,22,10,12,18.30
2008,07,22,10,13,18.30
2008,07,22,10,14,18.30
2008,07,22,10,15,18.30
2008,07,22,10,16,18.30
2008,07,22,10,17,18.30
2008,07,22,10,18,18.30
2008,07,22,10,19,18.30
2008,07,22,10,20,18.30
2008,07,22,10,21,18.20
2008,07,22,10,22,18.20
2008,07,22,10,23,18.20
2008,07,22,10,24,18.20
2008,07,22,10,25,18.20
2008,07,22,10,26,18.20
2008,07,22,10,27,18.20
2008,07,22,10,28,18.20
2008,07,22,10,29,18.20
2008,07,22,10,30,18.30
2008,07,22,10,31,18.30
2008,07,22,10,32,18.30
2008,07,22,10,33,18.40
2008,07,22,10,34,18.40
2008,07,22,10,35,18.50
2008,07,22,10,36,18.60
2008,07,22,10,37,18.70
2008,07,22,10,38,18.70
2008,07,22,10,39,18.70
2008,07,22,10,40,18.80
2008,07,22,10,41,18.90
2008,07,22,10,42,18.90
2008,07,22,10,43,19.00
2008,07,22,10,45,19.20
2008,07,22,10,46,19.20
2008,07,22,10,47,19.30
2008,07,22,10,48,19.40
2008,07,22,10,49,19.40
2008,07,22,10,50,19.50
2008,07,22,10,51,19.60
2008,07,22,10,53,19.60
2008,07,22,10,54,19.70
2008,07,22,10,55,19.70
2008,07,22,10,56,19.80
2008,07,22,10,57,19.80
2008,07,22,10,58,19.80
2008,07,22,10,59,19.90
2008,07,22,11,00,19.90
2008,07,22,11,01,20.00
2008,07,22,11,02,20.00
2008,07,22,11,03,20.10
2008,07,22,11,04,20.10
2008,07,22,11,05,20.20
2008,07,22,11,06,20.20
2008,07,22,11,07,20.20
2008,07,22,11,08,20.30
2008,07,22,11,09,20.30
2008,07,22,11,10,20.40
2008,07,22,11,11,20.40
2008,07,22,11,12,20.50
2008,07,22,11,13,20.60
2008,07,22,11,14,20.60
2008,07,22,11,15,20.60
2008,07,22,11,16,20.70
2008,07,22,11,17,20.70
2008,07,22,11,18,20.80
2008,07,22,11,19,20.80
2008,07,22,11,20,20.80
2008,07,22,11,21,20.90
2008,07,22,11,22,20.90
2008,07,22,11,23,21.00
2008,07,22,11,24,21.10
2008,07,22,11,25,21.10
2008,07,22,11,26,21.20
2008,07,22,11,27,21.20
2008,07,22,11,28,21.30
2008,07,22,11,29,21.30
2008,07,22,11,30,21.30
2008,07,22,11,31,21.30
2008,07,22,11,32,21.30
2008,07,22,11,33,21.30
2008,07,22,11,34,21.30
2008,07,22,11,35,21.30
2008,07,22,11,36,21.40
2008,07,22,11,37,21.40
2008,07,22,11,38,21.50
2008,07,22,11,39,21.60
2008,07,22,11,40,21.60
2008,07,22,11,41,21.70
2008,07,22,11,42,21.80
2008,07,22,11,43,21.80
2008,07,22,11,44,21.80
2008,07,22,11,45,21.90
2008,07,22,11,46,22.00
2008,07,22,11,47,22.10
2008,07,22,11,48,22.10
2008,07,22,11,49,22.20
2008,07,22,11,50,22.20
2008,07,22,11,51,22.20
2008,07,22,11,52,22.30
2008,07,22,11,53,22.30
2008,07,22,11,54,22.30
2008,07,22,11,55,22.20
2008,07,22,11,56,22.20
2008,07,22,11,57,22.20
2008,07,22,11,58,22.20
2008,07,22,11,59,22.20
2008,07,22,12,00,22.20
2008,07,22,12,01,22.30
2008,07,22,12,02,22.30
2008,07,22,12,03,22.30
2008,07,22,12,04,22.30
2008,07,22,12,05,22.40
2008,07,22,12,06,22.40
2008,07,22,12,07,22.50
2008,07,22,12,08,22.60
2008,07,22,12,09,22.60
2008,07,22,12,10,22.70
2008,07,22,12,11,22.80
2008,07,22,12,12,22.80
2008,07,22,12,13,22.90
2008,07,22,12,14,22.90
2008,07,22,12,15,23.00
2008,07,22,12,16,23.10
2008,07,22,12,17,23.10
2008,07,22,12,18,23.20
2008,07,22,12,19,23.20
2008,07,22,12,20,23.30
2008,07,22,12,21,23.30
2008,07,22,12,22,23.30
2008,07,22,12,23,23.40
2008,07,22,12,24,23.40
2008,07,22,12,25,23.50
2008,07,22,12,26,23.60
2008,07,22,12,27,23.60
2008,07,22,12,28,23.70
2008,07,22,12,29,23.70
2008,07,22,12,30,23.80
2008,07,22,12,31,23.80
2008,07,22,12,32,23.90
2008,07,22,12,33,23.90
2008,07,22,12,34,24.00
2008,07,22,12,35,24.00
2008,07,22,12,36,24.00
2008,07,22,12,37,23.90
2008,07,22,12,38,23.90
2008,07,22,12,39,23.90
2008,07,22,12,40,23.80
2008,07,22,12,41,23.90
2008,07,22,12,42,23.90
2008,07,22,12,43,23.90
2008,07,22,12,44,24.00
2008,07,22,12,45,24.00
2008,07,22,12,46,24.10
2008,07,22,12,47,24.20
2008,07,22,12,48,24.20
2008,07,22,12,49,24.30
2008,07,22,12,50,24.30
2008,07,22,12,51,24.40
2008,07,22,12,52,24.40
2008,07,22,12,53,24.50
2008,07,22,12,54,24.60
2008,07,22,12,55,24.60
2008,07,22,12,56,24.70
2008,07,22,12,57,24.70
2008,07,22,12,58,24.80
2008,07,22,12,59,24.80
2008,07,22,13,00,24.80
2008,07,22,13,01,24.80
2008,07,22,13,02,24.90
2008,07,22,13,03,24.90
2008,07,22,13,04,24.90
2008,07,22,13,05,25.00
2008,07,22,13,06,25.00
2008,07,22,13,07,25.10
2008,07,22,13,08,25.10
2008,07,22,13,09,25.10
2008,07,22,13,10,25.10
2008,07,22,13,11,25.20
2008,07,22,13,12,25.10
2008,07,22,13,13,25.20
2008,07,22,13,14,25.20
2008,07,22,13,15,25.20
2008,07,22,13,16,25.20
2008,07,22,13,17,25.20
2008,07,22,13,18,25.20
2008,07,22,13,19,25.30
2008,07,22,13,20,25.30
2008,07,22,13,21,25.30
2008,07,22,13,22,25.30
2008,07,22,13,23,25.40
2008,07,22,13,24,25.40
2008,07,22,13,25,25.40
2008,07,22,13,26,25.40
2008,07,22,13,27,25.40
2008,07,22,13,28,25.40
2008,07,22,13,29,25.40
2008,07,22,13,30,25.40
2008,07,22,13,31,25.40
2008,07,22,13,32,25.40
2008,07,22,13,33,25.50
2008,07,22,13,34,25.50
2008,07,22,13,35,25.60
2008,07,22,13,36,25.60
2008,07,22,13,37,25.70
2008,07,22,13,38,25.70
2008,07,22,13,39,25.70
2008,07,22,13,40,25.70
2008,07,22,13,41,25.70
2008,07,22,13,42,25.80
2008,07,22,13,43,25.80
2008,07,22,13,44,25.80
2008,07,22,13,45,25.80
2008,07,22,13,46,25.80
2008,07,22,13,47,25.80
2008,07,22,13,48,25.80
2008,07,22,13,49,25.80
2008,07,22,13,50,25.80
2008,07,22,13,51,25.90
2008,07,22,13,52,25.90
2008,07,22,13,53,25.80
2008,07,22,13,54,25.90
2008,07,22,13,55,25.90
2008,07,22,13,56,25.90
2008,07,22,13,57,25.90
2008,07,22,13,58,25.90
2008,07,22,13,59,25.90
2008,07,22,14,00,26.00
2008,07,22,14,01,25.90
2008,07,22,14,02,26.00
2008,07,22,14,03,26.00
2008,07,22,14,04,26.00
2008,07,22,14,05,26.00
2008,07,22,14,06,26.00
2008,07,22,14,07,26.00
2008,07,22,14,08,26.00
2008,07,22,14,09,26.10
2008,07,22,14,10,26.10
2008,07,22,14,11,26.10
2008,07,22,14,12,26.10
2008,07,22,14,13,26.10
2008,07,22,14,14,26.10
2008,07,22,14,15,26.10
2008,07,22,14,16,26.10
2008,07,22,14,17,26.20
2008,07,22,14,18,26.20
2008,07,22,14,19,26.20
2008,07,22,14,20,26.20
2008,07,22,14,21,26.20
2008,07,22,14,22,26.30
2008,07,22,14,23,26.30
2008,07,22,14,24,26.30
2008,07,22,14,25,26.30
2008,07,22,14,26,26.30
2008,07,22,14,27,26.30
2008,07,22,14,28,26.30
2008,07,22,14,29,26.40
2008,07,22,14,30,26.40
2008,07,22,14,31,26.40
2008,07,22,14,32,26.40
2008,07,22,14,33,26.40
2008,07,22,14,34,26.50
2008,07,22,14,35,26.60
2008,07,22,14,36,26.60
2008,07,22,14,37,26.60
2008,07,22,14,38,26.70
2008,07,22,14,39,26.70
2008,07,22,14,40,26.70
2008,07,22,14,41,26.70
2008,07,22,14,42,26.70
2008,07,22,14,43,26.70
2008,07,22,14,44,26.70
2008,07,22,14,45,26.70
2008,07,22,14,46,26.70
2008,07,22,14,47,26.70
2008,07,22,14,48,26.70
2008,07,22,14,49,26.70
2008,07,22,14,50,26.70
2008,07,22,14,51,26.70
2008,07,22,14,52,26.70
2008,07,22,14,53,26.70
2008,07,22,14,55,26.70
2008,07,22,14,56,26.70
2008,07,22,14,57,26.70
2008,07,22,14,58,26.70
2008,07,22,14,59,26.70
2008,07,22,15,00,26.70
2008,07,22,15,01,26.70
2008,07,22,15,02,26.70
2008,07,22,15,03,26.70
2008,07,22,15,04,26.70
2008,07,22,15,05,26.70
2008,07,22,15,06,26.80
2008,07,22,15,07,26.80
2008,07,22,15,08,26.80
2008,07,22,15,09,26.80
2008,07,22,15,10,26.80
2008,07,22,15,11,26.80
2008,07,22,15,12,26.80
2008,07,22,15,13,26.90
2008,07,22,15,14,26.90
2008,07,22,15,15,26.90
2008,07,22,15,16,26.90
2008,07,22,15,17,26.90
2008,07,22,15,18,26.90
2008,07,22,15,19,26.90
2008,07,22,15,20,26.90
2008,07,22,15,21,26.90
2008,07,22,15,22,26.90
2008,07,22,15,23,26.90
2008,07,22,15,24,26.90
2008,07,22,15,25,26.90
2008,07,22,15,26,26.90
2008,07,22,15,27,26.90
2008,07,22,15,28,26.90
2008,07,22,15,29,26.90
2008,07,22,15,30,27.00
2008,07,22,15,31,27.00
2008,07,22,15,32,27.10
2008,07,22,15,33,27.10
2008,07,22,15,34,27.10
2008,07,22,15,35,27.10
2008,07,22,15,36,27.10
2008,07,22,15,37,27.10
2008,07,22,15,38,27.10
2008,07,22,15,39,27.20
2008,07,22,15,40,27.20
2008,07,22,15,41,27.20
2008,07,22,15,42,27.20
2008,07,22,15,43,27.20
2008,07,22,15,44,27.20
2008,07,22,15,45,27.20
2008,07,22,15,46,27.20
2008,07,22,15,47,27.20
2008,07,22,15,48,27.20
2008,07,22,15,49,27.20
2008,07,22,15,50,27.20
2008,07,22,15,51,27.20
2008,07,22,15,52,27.20
2008,07,22,15,53,27.20
2008,07,22,15,54,27.20
2008,07,22,15,55,27.20
2008,07,22,15,56,27.20
2008,07,22,15,57,27.20
2008,07,22,15,58,27.20
2008,07,22,15,59,27.10
2008,07,22,16,00,27.10
2008,07,22,16,01,27.10
2008,07,22,16,02,27.10
2008,07,22,16,03,27.20
2008,07,22,16,04,27.10
2008,07,22,16,05,27.10
2008,07,22,16,06,27.10
2008,07,22,16,07,27.10
2008,07,22,16,08,27.10
2008,07,22,16,09,27.10
2008,07,22,16,10,27.10
2008,07,22,16,11,27.10
2008,07,22,16,12,27.10
2008,07,22,16,13,27.10
2008,07,22,16,14,27.10
2008,07,22,16,15,27.10
2008,07,22,16,16,27.10
2008,07,22,16,17,27.10
2008,07,22,16,18,27.10
2008,07,22,16,19,27.10
2008,07,22,16,20,27.20
2008,07,22,16,21,27.20
2008,07,22,16,22,27.20
2008,07,22,16,23,27.20
2008,07,22,16,24,27.30
2008,07,22,16,25,27.30
2008,07,22,16,26,27.30
2008,07,22,16,27,27.30
2008,07,22,16,28,27.40
2008,07,22,16,29,27.40
2008,07,22,16,30,27.40
2008,07,22,16,31,27.40
2008,07,22,16,32,27.40
2008,07,22,16,33,27.40
2008,07,22,16,34,27.50
2008,07,22,16,35,27.50
2008,07,22,16,36,27.60
2008,07,22,16,37,27.60
2008,07,22,16,38,27.60
2008,07,22,16,39,27.50
2008,07,22,16,40,27.50
2008,07,22,16,41,27.50
2008,07,22,16,42,27.50
2008,07,22,16,43,27.40
2008,07,22,16,44,27.40
2008,07,22,16,45,27.40
2008,07,22,16,46,27.40
2008,07,22,16,47,27.50
2008,07,22,16,48,27.50
2008,07,22,16,49,27.50
2008,07,22,16,50,27.60
2008,07,22,16,51,27.60
2008,07,22,16,52,27.60
2008,07,22,16,53,27.70
2008,07,22,16,54,27.70
2008,07,22,16,55,27.70
2008,07,22,16,56,27.70
2008,07,22,16,57,27.70
2008,07,22,16,58,27.70
2008,07,22,16,59,27.80
2008,07,22,17,00,27.80
2008,07,22,17,01,27.80
2008,07,22,17,02,27.80
2008,07,22,17,03,27.80
2008,07,22,17,04,27.80
2008,07,22,17,05,27.80
2008,07,22,17,06,27.80
2008,07,22,17,07,27.80
2008,07,22,17,08,27.80
2008,07,22,17,09,27.80
2008,07,22,17,10,27.80
2008,07,22,17,11,27.80
2008,07,22,17,12,27.80
2008,07,22,17,13,27.80
2008,07,22,17,14,27.80
2008,07,22,17,15,27.70
2008,07,22,17,16,27.70
2008,07,22,17,17,27.70
2008,07,22,17,18,27.60
2008,07,22,17,19,27.60
2008,07,22,17,20,27.60
2008,07,22,17,21,27.50
2008,07,22,17,22,27.40
2008,07,22,17,23,27.40
2008,07,22,17,24,27.40
2008,07,22,17,25,27.40
2008,07,22,17,26,27.40
2008,07,22,17,27,27.30
2008,07,22,17,28,27.30
2008,07,22,17,29,27.30